Weather History for Pittsburgh, PA

Change the Weather History Date:

Friday, October 25, 2013

  Actual Average Record
Temperature  
Mean Temperature 40 °F 50 °F  
Max Temperature 47 °F 60 °F 82 °F (2012)
Min Temperature 33 °F 40 °F 26 °F (1965)
Degree Days  
Heating Degree Days 25 15  
Month to date heating degree days 195 292  
Since 1 July heating degree days 304 406  
Cooling Degree Days 0 0  
Month to date cooling degree days 36 6  
Year to date cooling degree days 831 734  
Moisture  
Dew Point 30 °F    
Average Humidity 71    
Maximum Humidity 92    
Minimum Humidity 49    
Precipitation  
Precipitation 0.02 in 0.08 in 1.90 in (1872)
Month to date precipitation 2.19 1.80  
Year to date precipitation 30.26 31.62  
Snow  
Snow 0.10 in 0.00 in 1.60 in (1962)
Month to date snowfall 0.1 0.2  
Since 1 July snowfall 0.1 0.2  
Snow Depth 0.00 in    
Sea Level Pressure  
Sea Level Pressure 30.29 in    
Wind  
Wind Speed 7 mph (WSW)    
Max Wind Speed 16 mph    
Max Gust Speed 21 mph    
Visibility 9 miles    
Events Snow    
T = Trace of Precipitation, MM = Missing Value Source: NWS Daily Summary

Daily Weather History Graph

Daily Weather History Graph

Search for Another Location

Airport:

Trip Planner

Search our weather history database for the weather conditions in past years. The results will help you decide how hot, cold, wet, or windy it might be!

Date:

Astronomy

Oct. 25, 2013 Rise Set
Actual Time 7:43 AM EDT 6:26 PM EDT
Civil Twilight 7:15 AM EDT 6:54 PM EDT
Nautical Twilight 6:43 AM EDT 7:25 PM EDT
Astronomical Twilight 6:11 AM EDT 7:57 PM EDT
Moon 11:44 PM EDT (10/25) 1:22 PM EDT (10/25)
Length of Visible Light 11h 38m
Length of Day
10h 43m
Waning Gibbous, 62% of the Moon is Illuminated
Oct 25
Waning Gibbous
Oct 26
Last Quarter
Nov 3
New
Nov 10
First Quarter
Nov 17
Full

Hourly Weather History & Observations

Time (EDT) Temp. Windchill Dew Point Humidity Pressure Visibility Wind Dir Wind Speed Gust Speed Precip Events Conditions
12:51 AM 34.0 °F 31.0 °F 28.9 °F 82% 30.19 in 10.0 mi WSW 3.5 mph - N/A   Partly Cloudy
1:51 AM 34.0 °F - 28.9 °F 82% 30.20 in 9.0 mi Calm Calm - N/A   Partly Cloudy
2:51 AM 34.0 °F 31.0 °F 28.9 °F 82% 30.21 in 9.0 mi WSW 3.5 mph - N/A   Mostly Cloudy
3:51 AM 33.1 °F 30.0 °F 28.9 °F 85% 30.22 in 8.0 mi WSW 3.5 mph - N/A   Mostly Cloudy
4:37 AM 33.8 °F 28.6 °F 30.2 °F 87% 30.18 in 8.0 mi WSW 5.8 mph - 0.00 in Snow Light Snow
4:51 AM 34.0 °F 28.8 °F 30.0 °F 85% 30.23 in 8.0 mi WSW 5.8 mph - 0.00 in Snow Light Snow
5:51 AM 35.1 °F 30.1 °F 30.9 °F 85% 30.25 in 7.0 mi West 5.8 mph - 0.00 in Snow Light Snow
6:51 AM 35.1 °F 31.0 °F 32.0 °F 89% 30.28 in 4.0 mi WSW 4.6 mph - 0.01 in Snow Light Snow
7:12 AM 33.8 °F 29.6 °F 32.0 °F 93% 30.23 in 4.0 mi West 4.6 mph - 0.00 in Snow Light Snow
7:37 AM 33.8 °F 27.7 °F 32.0 °F 93% 30.24 in 4.0 mi West 6.9 mph - 0.00 in Snow Light Snow
7:51 AM 35.1 °F 29.3 °F 32.0 °F 89% 30.30 in 5.0 mi West 6.9 mph - 0.00 in Snow Light Snow
8:23 AM 35.6 °F 29.2 °F 32.0 °F 87% 30.26 in 6.0 mi West 8.1 mph - 0.00 in   Overcast
8:51 AM 35.1 °F 28.6 °F 32.0 °F 89% 30.33 in 6.0 mi West 8.1 mph - 0.00 in   Overcast
9:51 AM 35.1 °F 31.0 °F 33.1 °F 92% 30.35 in 7.0 mi West 4.6 mph - N/A   Mostly Cloudy
10:20 AM 35.6 °F 30.7 °F 33.8 °F 93% 30.30 in 8.0 mi SW 5.8 mph - N/A   Scattered Clouds
10:51 AM 39.0 °F 34.0 °F 33.1 °F 79% 30.37 in 10.0 mi Variable 6.9 mph - N/A   Scattered Clouds
11:29 AM 41.0 °F 35.2 °F 33.8 °F 76% 30.32 in 10.0 mi WNW 9.2 mph - N/A   Mostly Cloudy
11:51 AM 42.1 °F 37.7 °F 33.1 °F 70% 30.37 in 10.0 mi West 6.9 mph - N/A   Mostly Cloudy
12:06 PM 42.8 °F 37.0 °F 32.0 °F 66% 30.32 in 10.0 mi WNW 10.4 mph - N/A   Scattered Clouds
12:51 PM 43.0 °F 36.4 °F 28.9 °F 58% 30.35 in 10.0 mi West 12.7 mph 20.7 mph N/A   Scattered Clouds
1:51 PM 45.0 °F 39.7 °F 26.1 °F 48% 30.32 in 10.0 mi WSW 10.4 mph 18.4 mph N/A   Scattered Clouds
2:51 PM 45.0 °F 39.7 °F 27.0 °F 49% 30.32 in 10.0 mi WNW 10.4 mph - N/A   Mostly Cloudy
3:51 PM 45.0 °F 39.3 °F 26.1 °F 48% 30.32 in 10.0 mi West 11.5 mph - N/A   Mostly Cloudy
4:51 PM 45.0 °F 39.7 °F 26.1 °F 48% 30.32 in 10.0 mi West 10.4 mph - N/A   Mostly Cloudy
5:51 PM 44.1 °F 38.6 °F 27.0 °F 51% 30.32 in 10.0 mi WNW 10.4 mph - N/A   Mostly Cloudy
6:51 PM 43.0 °F 41.3 °F 27.0 °F 53% 30.32 in 10.0 mi WSW 3.5 mph - N/A   Mostly Cloudy
7:51 PM 42.1 °F 39.2 °F 28.0 °F 58% 30.33 in 10.0 mi WSW 4.6 mph - N/A   Mostly Cloudy
8:51 PM 42.1 °F 38.4 °F 28.9 °F 60% 30.32 in 10.0 mi SW 5.8 mph - N/A   Mostly Cloudy
9:51 PM 39.9 °F 37.8 °F 28.9 °F 65% 30.31 in 10.0 mi SW 3.5 mph - N/A   Scattered Clouds
10:51 PM 37.9 °F 34.4 °F 28.9 °F 70% 30.30 in 10.0 mi SW 4.6 mph - N/A   Partly Cloudy
11:51 PM 37.0 °F 32.4 °F 28.9 °F 73% 30.29 in 10.0 mi SSW 5.8 mph - N/A   Clear